GEFSCGP_500_meanwind_210.txt.gz
Wind_Speed
10 10 10 10 10 10 9 9 8 8 8 7 7 8 9 9 9 9 10 11 10 10 10 10 9 10 10 10 10 10 9 10 10 10 9 9 8 8 7 7 6 5 5 5
10 10 10 10 10 10 9 9 8 9 8 8 8 8 9 10 10 9 10 10 11 11 10 10 10 10 9 10 10 10 10 9 9 9 8 9 8 8 8 7 7 6 6 6
11 10 10 10 10 10 10 10 9 9 9 8 9 9 9 10 10 10 10 10 11 11 11 11 11 10 10 10 11 11 10 10 9 9 9 9 9 8 8 7 7 6 5 6
11 11 11 11 11 11 11 10 10 9 9 9 8 9 9 10 9 10 10 10 10 11 11 10 10 10 10 11 11 11 10 10 10 10 10 9 9 9 9 8 7 6 6 6
11 12 11 11 11 11 11 11 10 10 10 10 9 9 8 9 9 9 9 10 10 10 10 10 11 11 11 11 11 11 11 10 11 10 10 10 10 10 9 9 8 7 6 6
13 12 12 11 11 11 11 11 11 11 11 10 9 9 8 9 9 10 9 9 10 10 10 10 11 11 11 11 11 11 11 11 10 10 10 11 11 10 10 9 8 8 7 7
14 13 13 13 12 12 12 12 11 11 11 10 9 9 7 8 9 10 10 10 10 11 11 11 11 12 12 12 12 12 12 11 11 11 12 11 11 11 11 10 9 9 8 8
15 14 14 13 13 13 13 13 12 12 11 10 9 9 7 8 8 9 10 10 10 10 11 12 12 12 12 13 13 13 13 13 12 12 12 12 12 12 12 12 10 9 9 9
16 15 14 14 14 14 14 14 13 13 12 11 10 8 8 8 8 8 9 9 8 9 11 12 12 12 12 13 13 13 13 13 12 13 13 13 13 12 13 12 11 10 9 8
17 16 15 15 15 15 15 15 15 14 13 12 11 9 8 8 9 9 9 9 9 10 10 11 11 12 12 12 12 12 12 13 12 13 13 13 13 13 13 13 12 11 10 10
18 18 17 17 16 16 16 16 16 15 15 14 12 10 9 9 10 10 10 10 10 10 10 10 11 11 11 12 12 12 12 12 12 12 13 13 13 13 13 12 12 12 11 11
18 19 18 17 17 17 17 17 17 17 16 15 13 11 11 11 10 11 11 10 11 11 11 11 11 11 11 12 12 12 12 12 12 13 13 13 13 13 13 13 13 12 12 11
19 20 19 19 19 18 18 18 18 18 18 17 15 13 13 12 11 11 12 12 12 12 11 11 11 11 12 13 13 13 13 13 13 12 12 13 13 13 12 12 12 12 11 11
21 21 21 20 19 19 19 19 19 19 19 17 15 14 14 13 12 11 12 12 12 12 12 12 12 12 12 13 13 13 13 13 13 13 13 13 13 13 13 12 12 13 12 12
22 22 22 21 20 20 20 20 19 19 18 17 15 15 14 14 13 12 12 12 12 12 12 12 12 13 13 13 13 13 13 13 14 14 14 13 13 14 13 13 13 13 13 13
23 22 22 22 22 22 21 21 20 19 18 17 16 15 15 15 14 14 13 12 12 12 12 13 13 13 14 14 14 14 14 14 14 14 14 14 14 14 14 14 14 14 14 14
23 22 22 22 22 23 22 20 19 18 18 17 17 16 16 16 15 14 14 13 13 12 12 12 13 14 14 14 14 14 14 14 14 15 14 15 15 15 15 15 16 16 16 16
23 23 22 22 22 24 19 20 19 18 18 18 17 17 16 16 16 15 15 15 14 14 13 13 13 14 14 14 14 14 14 14 14 15 15 15 16 16 16 17 17 17 17 17
24 24 24 24 23 22 19 20 19 19 19 18 17 17 17 17 16 15 15 15 15 14 14 14 14 14 14 14 14 15 15 14 14 15 16 16 17 17 17 17 18 18 18 18
24 24 25 25 24 22 19 19 20 20 20 18 18 17 17 17 16 15 15 15 15 15 15 15 15 15 14 14 14 15 15 15 15 15 15 15 16 17 17 18 18 18 18 18
23 23 24 24 24 22 20 20 21 20 18 19 19 18 18 18 16 15 16 16 15 15 15 15 15 14 15 15 15 15 16 16 16 16 16 15 16 16 17 17 18 18 18 19
24 23 24 24 25 22 21 21 21 19 20 19 19 19 19 19 18 17 17 17 16 16 16 16 15 15 16 16 16 17 17 17 18 17 17 17 17 18 18 18 19 19 19 19
25 24 24 25 24 23 23 22 21 21 20 20 20 20 20 20 19 18 18 18 18 17 17 17 17 16 17 17 17 17 18 18 19 18 18 18 18 18 19 19 20 20 20 20
26 25 25 26 25 25 24 23 22 22 21 22 22 22 21 21 20 19 19 19 19 19 19 18 18 18 17 18 18 19 19 19 19 19 20 20 20 20 20 21 21 21 21 22
26 27 26 26 26 26 25 24 24 23 22 23 23 23 23 22 21 21 21 21 21 21 20 20 19 19 19 19 19 20 20 20 20 21 21 22 22 22 22 23 23 23 23 24
27 27 27 26 26 27 26 25 26 25 24 24 25 24 24 23 23 23 23 23 23 23 23 22 21 20 20 20 21 21 22 22 22 22 23 24 24 24 24 24 24 24 25 25

GEFSCGP_500_meanwind_216.txt.gz
Wind_Speed
10 10 10 10 10 9 10 10 10 10 9 9 9 9 9 9 9 10 9 9 10 10 10 10 10 9 9 10 10 11 10 10 11 10 10 10 10 9 8 7 7 7 6 6
11 11 11 11 11 10 10 10 10 10 9 10 9 10 10 10 10 10 10 10 10 11 11 11 10 10 10 10 10 10 10 11 11 10 10 10 10 9 8 7 8 7 6 6
12 12 12 11 11 11 10 10 10 10 10 9 9 10 10 10 10 10 10 11 11 11 11 11 11 10 10 11 11 10 10 10 10 10 11 10 10 9 8 7 7 7 6 6
13 13 12 12 12 11 10 10 10 10 10 10 11 10 11 11 10 10 10 11 11 11 11 11 11 11 11 11 11 11 11 11 11 11 11 10 10 9 8 7 7 7 6 6
13 13 13 13 12 12 11 11 10 10 10 10 10 10 10 11 11 10 11 11 11 11 11 11 11 11 11 11 11 11 11 11 11 11 10 10 10 9 9 8 8 7 7 7
14 14 14 13 13 13 12 11 11 10 10 11 9 10 9 11 10 11 11 11 11 11 11 11 11 11 11 11 11 11 12 12 11 11 11 10 10 10 10 10 9 8 8 8
15 15 15 14 14 13 13 12 12 12 12 11 10 10 9 10 11 11 11 11 11 11 11 11 11 12 11 11 11 12 12 12 12 11 11 11 11 11 11 11 10 9 9 8
16 16 15 15 15 15 14 14 14 14 14 12 11 10 9 10 10 11 11 10 10 11 11 11 12 12 12 12 12 12 12 12 12 12 12 12 12 12 12 11 11 10 10 9
16 17 16 16 16 16 15 15 15 15 14 13 12 10 9 10 10 10 11 11 11 11 11 11 12 12 12 12 12 11 11 12 13 13 13 14 13 12 12 11 11 10 10 9
17 17 17 17 16 16 16 16 16 16 15 14 12 11 10 10 10 10 10 10 11 10 11 11 11 11 11 12 12 11 12 12 13 13 13 13 13 12 11 11 11 11 11 10
18 18 18 18 18 17 17 17 17 17 16 15 13 12 11 11 10 10 10 10 10 10 10 10 10 10 11 11 12 12 12 12 12 12 12 11 11 11 11 11 11 11 11 11
17 18 19 19 19 18 19 19 19 18 18 16 15 13 12 12 11 11 11 11 11 11 11 11 11 11 11 11 11 12 11 11 12 11 11 11 11 11 11 11 11 11 11 11
19 18 19 19 20 20 20 20 20 20 19 18 16 14 13 13 12 12 12 12 12 11 12 11 12 11 11 11 11 12 12 12 11 11 12 11 12 12 11 11 11 11 11 11
20 20 21 21 21 21 21 21 21 21 21 19 18 16 15 14 14 13 13 12 12 12 12 11 11 12 12 11 11 12 13 13 12 12 12 12 12 12 11 12 12 12 13 12
20 20 21 21 22 22 21 22 21 21 21 20 18 17 16 16 15 14 14 13 13 12 12 12 12 12 12 12 12 12 12 13 13 13 12 13 13 12 12 12 12 13 13 13
20 20 20 21 22 23 23 22 22 22 21 20 19 17 17 17 16 16 15 14 14 13 13 13 13 13 13 13 12 12 12 12 13 13 13 13 13 13 13 13 13 13 14 14
20 20 21 21 21 23 23 22 21 21 21 21 20 18 18 18 17 17 16 15 15 15 14 13 13 14 14 14 13 13 13 13 13 13 13 13 13 13 12 12 13 13 14 14
21 21 20 21 21 22 21 21 21 21 21 21 20 20 20 19 18 17 17 16 16 15 15 14 14 14 14 14 14 14 14 14 14 14 14 14 14 13 13 13 13 13 13 14
22 22 22 22 22 22 21 21 21 21 21 21 21 21 22 21 19 18 17 17 16 16 15 15 15 15 15 15 15 14 14 14 14 14 14 14 14 14 14 14 14 14 14 15
23 22 23 23 23 22 21 21 21 21 21 21 22 22 22 21 20 19 18 18 17 16 16 16 16 16 16 16 16 15 15 15 15 15 15 15 15 15 15 16 15 15 16 16
23 23 23 23 23 22 22 21 21 21 21 22 23 22 22 22 21 20 19 19 18 17 17 17 16 16 16 16 17 17 16 16 16 16 16 16 16 16 16 17 17 16 16 16
22 24 24 24 24 23 22 21 21 21 21 22 23 23 23 22 22 22 21 20 19 18 18 17 17 17 17 17 18 18 17 17 17 17 17 17 17 17 18 18 18 18 18 18
23 24 25 25 24 23 22 22 22 22 22 21 21 23 24 23 23 22 22 21 20 20 19 19 18 18 18 18 18 19 18 18 17 17 18 18 18 18 18 18 18 18 19 19
24 24 25 25 24 24 23 23 23 23 22 22 21 21 22 22 22 22 22 22 21 21 20 20 20 19 19 19 19 19 19 19 18 18 18 18 18 18 19 19 19 20 20 21
25 25 25 25 23 23 23 23 23 23 23 23 22 22 22 22 22 22 23 23 23 22 21 21 21 20 20 20 20 20 20 20 20 19 19 19 19 19 19 20 20 21 21 22
25 25 26 25 24 23 23 23 24 24 24 24 24 24 24 24 23 23 24 24 24 24 23 22 22 22 21 21 21 21 21 21 21 21 21 21 21 21 21 21 22 22 22 23

GEFSCGP_500_meanwind_222.txt.gz
Wind_Speed
9 10 9 9 9 9 10 10 11 10 11 11 10 10 11 11 11 11 11 11 11 11 11 10 10 10 11 10 10 10 11 10 10 10 9 9 9 9 8 9 8 8 7 7
11 11 10 10 10 10 10 11 11 12 11 11 11 11 11 12 11 11 11 11 12 11 11 11 10 11 10 10 9 9 9 9 9 8 9 9 9 9 9 9 8 8 7 7
12 11 11 12 12 12 12 12 12 12 12 12 12 12 11 12 12 12 12 11 11 12 11 11 11 11 10 10 10 9 8 8 8 8 9 9 9 9 9 9 9 8 8 7
13 13 13 13 13 12 12 12 12 12 11 11 12 13 12 12 12 12 12 12 12 12 12 11 11 11 11 10 10 9 9 8 8 8 9 9 9 9 9 9 9 8 8 7
14 14 14 14 14 13 12 12 12 12 11 12 12 14 13 13 13 12 12 12 12 13 12 12 12 12 12 11 10 10 10 9 9 9 9 9 9 9 9 8 8 8 8 7
15 15 15 14 14 14 14 13 13 12 12 12 12 14 13 13 13 14 13 13 13 13 13 13 12 12 12 11 11 10 10 10 10 10 10 10 10 9 9 9 9 9 8 8
16 15 15 15 15 15 15 13 12 11 11 12 12 15 14 14 14 14 13 14 14 14 14 13 12 12 12 12 11 11 11 11 11 11 10 10 10 10 10 9 10 9 9 9
16 16 15 15 15 15 16 15 13 12 12 13 13 14 13 14 14 14 14 14 14 13 13 13 13 13 12 12 11 11 11 11 11 11 10 10 10 10 10 10 10 10 9 10
16 17 15 16 16 15 15 16 16 15 14 14 15 14 13 13 14 14 14 14 13 13 13 14 13 13 13 12 12 12 11 11 11 11 11 11 10 10 10 10 9 9 9 9
17 18 17 17 17 17 17 16 16 16 15 16 15 14 13 13 14 14 14 14 14 13 13 13 13 12 12 12 12 12 11 11 11 11 11 10 10 10 10 9 9 9 9 10
18 18 18 18 18 18 18 17 18 18 17 17 16 15 14 15 15 14 14 14 13 13 13 13 12 12 12 12 11 12 11 11 11 11 11 11 10 10 10 10 10 10 10 10
19 19 20 19 19 20 20 19 19 20 18 18 17 16 15 16 16 15 14 14 14 13 13 13 12 12 12 12 12 12 12 11 11 11 11 11 11 10 10 10 10 10 10 10
19 19 20 20 20 21 21 20 21 21 20 20 18 16 16 17 16 15 14 14 14 13 13 13 13 13 13 12 12 12 12 11 11 12 11 11 11 11 10 11 10 10 10 10
20 19 20 21 21 21 22 22 22 22 22 21 20 18 18 17 16 15 15 14 14 14 14 13 13 13 13 13 12 12 12 12 12 12 11 11 11 11 11 11 11 11 11 11
21 21 21 21 21 21 22 23 23 24 23 23 21 20 19 19 18 17 16 15 15 15 14 14 14 14 14 13 12 12 12 12 11 11 11 11 11 11 11 11 12 12 11 11
22 21 21 21 20 21 22 23 24 24 24 24 23 21 20 19 19 19 19 17 16 17 16 15 15 15 14 13 12 12 11 12 11 11 11 11 11 11 11 11 12 11 11 11
22 22 22 21 21 23 23 22 22 23 23 23 23 23 22 21 21 21 20 18 17 18 18 17 16 15 14 14 13 13 12 12 12 12 12 12 12 11 12 12 12 12 12 12
22 22 22 21 22 23 21 21 22 21 22 23 23 23 23 23 22 22 21 20 19 18 18 18 17 17 16 15 15 14 13 13 13 12 12 13 13 13 13 13 13 13 12 13
22 22 22 22 23 22 21 22 21 22 21 22 23 23 23 24 24 23 23 21 20 19 19 18 18 18 17 16 16 15 15 14 14 13 13 14 14 14 14 14 14 14 14 14
23 23 23 22 22 22 20 20 20 22 22 22 22 22 23 24 24 24 23 22 21 20 20 19 19 18 17 17 17 17 16 15 15 15 15 15 15 15 15 15 15 14 15 15
23 23 23 22 22 22 20 21 21 22 22 22 22 22 23 24 24 25 25 23 22 21 21 21 20 19 18 17 17 17 17 16 16 16 16 16 16 16 16 16 16 16 17 17
24 24 23 23 23 22 21 22 23 23 23 22 22 22 23 24 25 25 24 24 23 22 22 22 21 20 19 19 19 19 18 18 17 17 17 17 18 18 18 17 18 18 18 18
25 25 23 23 23 22 22 23 24 24 24 24 24 23 23 23 24 25 24 24 24 23 23 23 22 21 21 20 20 20 19 19 19 18 18 19 19 19 19 19 19 19 19 19
26 25 25 24 23 22 23 24 25 25 25 25 25 25 25 24 24 25 25 25 25 24 24 23 23 22 22 22 21 20 20 20 20 19 19 19 20 20 20 20 20 20 20 20
26 26 25 25 24 24 24 25 25 26 26 25 25 25 25 25 26 26 26 26 26 26 25 24 24 24 23 23 22 22 21 21 21 20 20 20 20 21 20 20 20 21 21 22
29 28 27 27 25 25 25 25 25 25 25 25 25 24 25 26 26 26 26 26 26 26 26 25 25 25 25 24 24 23 23 23 22 22 22 22 22 22 21 21 22 22 23 24

GEFSCGP_500_meanwind_228.txt.gz
Wind_Speed
9 9 9 9 9 10 10 9 9 8 8 8 8 8 8 8 8 8 8 8 8 9 8 8 8 8 8 8 8 8 8 7 7 7 7 8 8 8 8 8 8 8 7 7
10 10 10 10 10 10 10 10 9 8 9 10 9 9 8 8 8 8 8 8 9 9 9 8 8 8 8 8 7 7 8 8 7 7 8 7 7 8 8 7 8 8 8 8
11 10 11 11 11 11 10 10 10 10 10 11 11 10 10 9 9 9 8 8 8 9 9 9 8 8 8 9 9 8 8 8 8 8 8 7 7 8 7 8 8 8 8 8
12 12 12 12 12 12 11 11 11 11 11 11 11 11 10 10 10 9 9 8 8 8 8 8 8 8 8 9 9 8 8 9 9 9 9 8 8 8 8 8 9 8 8 8
13 12 13 12 12 12 12 12 12 12 12 12 12 11 10 10 10 10 9 8 8 9 9 8 8 8 8 9 9 9 9 9 10 10 10 9 9 9 9 9 9 9 9 9
14 14 14 13 13 14 13 13 13 13 13 13 12 12 11 10 10 10 9 9 9 9 9 9 8 9 9 9 10 10 10 10 10 10 10 10 10 9 9 9 9 9 9 9
14 14 14 14 14 14 14 14 14 14 14 14 13 13 12 11 11 10 10 10 10 9 9 9 8 9 9 10 10 10 10 11 10 10 10 10 10 9 9 9 9 9 9 9
15 16 15 15 15 15 15 15 15 15 14 13 13 13 12 11 11 10 10 10 10 9 10 10 10 10 10 10 10 10 10 10 10 10 10 10 10 9 9 9 10 9 9 10
16 16 15 15 15 15 15 15 15 16 15 14 14 13 13 12 11 11 11 10 10 10 10 11 10 10 11 11 10 10 10 10 10 10 10 10 9 10 10 10 10 10 10 10
17 17 16 15 15 16 16 16 16 17 16 15 15 15 14 13 12 11 11 10 10 10 10 11 11 11 10 11 11 11 11 11 10 10 10 9 9 10 10 10 10 11 10 11
17 18 17 16 16 16 16 17 18 18 18 17 17 16 14 13 13 12 11 11 10 10 10 10 10 10 10 10 10 10 10 10 10 10 10 10 10 10 10 11 11 10 10 10
17 18 18 17 16 17 17 18 19 19 18 18 18 16 14 14 14 13 12 12 11 10 10 10 10 11 10 10 10 10 10 10 11 11 11 10 10 10 10 11 10 10 10 10
17 18 18 18 18 17 18 18 19 20 19 19 18 17 15 15 15 14 13 12 12 11 11 11 11 12 12 11 11 11 11 11 11 11 10 10 10 11 11 11 11 10 10 10
17 18 19 18 18 18 19 19 20 21 21 20 19 19 17 17 18 17 16 14 13 13 12 13 13 13 13 13 12 12 12 11 11 11 11 11 11 11 11 11 11 11 11 10
19 19 19 18 18 19 19 19 19 20 21 21 20 20 19 19 19 18 17 16 15 14 14 14 14 14 14 14 13 13 13 13 12 12 12 11 11 11 10 10 10 11 11 11
20 21 20 20 19 19 20 20 20 21 21 22 21 20 19 19 20 19 19 17 17 16 16 16 16 16 15 15 14 14 14 14 13 13 13 12 12 11 11 11 11 11 11 11
21 22 22 21 21 23 22 20 21 22 22 22 21 19 20 20 20 20 20 19 18 18 18 17 17 16 16 16 15 15 15 14 14 14 14 13 13 12 13 13 12 12 11 11
21 22 22 23 23 25 21 20 22 22 22 22 21 20 20 20 20 20 20 20 19 19 18 18 17 17 17 17 16 16 16 15 15 14 14 14 14 13 13 13 13 13 13 12
23 23 24 24 24 23 20 19 20 21 21 21 20 19 20 20 21 21 21 21 20 20 20 19 18 18 19 18 18 17 17 17 16 16 16 15 15 14 14 14 14 13 14 14
23 23 23 23 24 22 20 19 20 21 21 21 20 19 19 19 20 20 21 21 20 21 21 21 20 19 19 19 20 19 18 18 17 17 17 17 16 15 15 15 15 14 14 15
23 23 23 24 24 22 19 19 20 21 19 20 20 19 19 19 18 19 20 20 21 21 21 22 21 21 21 21 21 21 20 19 18 18 18 18 17 16 16 16 15 15 16 16
24 24 23 24 24 22 20 20 20 20 19 20 19 19 19 18 18 19 19 20 21 22 22 22 22 22 21 22 22 21 21 20 19 19 19 19 18 18 17 17 17 17 17 17
25 24 23 23 21 20 20 21 21 20 20 20 19 19 19 19 19 19 19 20 21 22 22 23 23 22 22 22 22 22 21 21 21 20 20 19 19 19 18 18 18 18 18 18
26 26 25 24 22 21 21 22 22 22 21 20 20 20 20 20 20 20 20 21 22 23 23 24 24 24 24 24 23 23 23 22 22 22 21 21 20 20 20 19 19 19 20 20
26 26 25 25 24 23 23 23 22 22 21 21 20 21 21 21 21 21 21 21 22 23 24 25 25 25 25 26 25 24 24 24 24 24 23 22 22 21 21 21 21 21 21 21
27 27 27 26 25 25 24 23 23 23 22 22 21 21 21 21 22 22 22 22 22 23 24 25 25 25 26 26 26 26 26 26 26 25 25 24 23 23 23 22 22 22 23 23

GEFSCGP_500_meanwind_234.txt.gz
Wind_Speed
11 11 10 11 11 12 11 11 11 12 12 12 12 11 11 11 11 11 10 11 11 11 11 10 11 11 11 11 10 10 10 9 9 9 9 8 8 8 9 9 9 9 9 10
12 12 12 12 12 12 12 12 12 12 13 13 12 12 12 12 12 11 11 10 11 12 11 11 11 11 10 11 11 10 10 9 9 9 9 8 8 8 9 9 9 10 9 9
13 13 13 13 13 13 13 13 13 13 13 13 13 13 12 12 12 12 11 11 11 12 12 11 11 11 11 11 11 11 10 10 10 10 9 9 8 9 9 9 9 9 9 10
13 13 14 14 14 14 14 14 14 15 14 13 14 14 13 12 12 12 12 12 11 11 12 11 11 11 11 12 11 11 11 10 10 10 10 9 9 9 9 9 9 8 9 9
14 14 14 14 14 14 15 15 16 16 16 15 14 14 13 13 12 12 12 12 12 12 11 12 11 11 11 11 11 11 11 10 10 10 10 11 10 10 9 9 8 8 8 9
15 16 16 15 15 15 15 16 16 16 17 16 15 15 14 14 13 13 14 14 13 13 12 12 12 12 12 12 12 11 11 11 10 10 10 10 10 10 9 8 8 8 8 9
16 16 16 16 16 16 16 16 16 17 17 16 16 16 15 15 14 14 14 14 14 14 14 13 12 12 12 12 12 12 12 11 11 11 10 10 10 10 9 9 8 8 8 9
17 17 17 17 17 17 16 16 16 17 16 16 16 17 16 16 15 14 14 14 14 15 15 14 14 13 12 12 12 12 11 11 11 11 11 11 11 10 10 9 9 9 9 9
17 17 17 18 18 18 17 17 17 18 18 17 17 16 16 16 16 15 14 14 14 15 15 15 14 13 13 12 12 12 12 12 12 12 12 12 11 11 10 10 10 10 10 9
17 18 18 18 18 18 18 17 18 18 18 18 16 16 15 16 16 15 15 14 14 14 14 15 15 14 14 13 13 12 13 13 13 12 12 12 12 11 11 11 11 11 11 11
17 17 17 17 18 18 18 18 18 19 19 19 17 15 15 16 15 15 15 15 15 14 14 15 15 15 15 14 14 14 13 13 13 13 12 12 12 12 11 11 11 11 11 12
17 18 18 17 17 17 18 18 18 19 19 19 18 16 16 16 15 15 15 15 15 15 15 15 16 16 15 15 14 14 13 13 13 13 13 12 12 12 11 11 12 12 12 12
18 18 18 18 17 17 18 18 19 20 20 20 19 17 16 16 16 17 16 16 16 16 16 16 16 16 16 16 15 14 14 14 14 13 13 13 13 13 12 12 13 13 13 12
19 19 18 18 18 19 18 18 19 20 21 21 20 18 17 17 17 17 17 17 18 18 18 18 17 17 17 17 17 16 16 16 16 15 15 15 15 14 13 13 13 13 13 13
20 19 19 18 18 18 19 19 19 20 21 21 20 20 19 18 18 17 18 18 18 19 18 18 18 18 18 18 18 17 17 17 17 17 16 16 16 15 15 14 14 14 14 14
20 20 19 19 19 20 20 20 20 21 22 23 22 21 21 21 20 19 19 19 20 21 20 19 19 19 19 20 19 18 18 17 17 16 17 17 17 17 16 15 15 15 15 14
21 21 22 21 21 22 22 20 21 21 22 23 23 22 22 22 21 21 21 21 21 21 21 21 20 20 21 21 20 20 19 19 18 17 17 18 18 18 18 17 16 16 16 15
23 23 23 23 23 24 22 20 22 22 22 23 23 23 22 21 21 21 21 21 21 21 21 21 20 21 21 22 21 21 20 20 19 19 18 18 18 18 18 17 17 17 16 16
24 23 23 24 24 24 22 21 22 22 22 23 24 23 23 22 22 21 21 21 20 21 22 21 21 21 21 22 22 22 21 21 20 20 20 20 19 19 19 18 18 18 17 17
24 24 24 24 24 23 21 21 22 23 22 22 24 23 23 23 22 21 21 21 21 22 21 21 21 21 21 22 22 22 22 22 21 21 21 21 20 20 20 19 19 18 18 18
25 25 25 25 25 23 22 22 23 23 21 22 23 23 23 24 22 21 22 22 22 23 22 22 22 22 22 22 23 23 22 22 22 22 22 22 22 21 20 20 20 19 19 19
27 26 27 27 26 23 23 23 24 24 23 23 24 24 23 23 23 22 23 23 22 23 23 23 23 23 23 23 24 23 23 23 23 23 23 23 23 22 22 21 21 21 21 20
28 27 27 28 27 26 25 25 25 25 25 25 24 24 23 23 23 24 24 24 24 23 24 24 24 24 24 24 24 24 24 24 24 24 24 24 24 23 22 22 23 22 22 22
30 29 29 28 28 28 27 27 27 27 27 26 25 24 24 24 24 25 25 25 24 24 24 25 25 25 25 25 25 25 26 26 26 25 26 26 25 24 24 24 23 23 23 23
29 29 29 29 28 29 29 29 28 27 26 25 25 25 24 24 24 24 24 25 25 25 25 25 25 26 26 26 26 27 27 27 27 26 26 27 27 27 26 26 25 25 25 25
30 30 31 30 30 31 30 30 30 29 27 26 26 25 25 26 25 25 25 25 25 25 26 26 26 26 27 27 27 28 28 28 28 28 27 27 28 28 28 28 27 27 26 26

GEFSCGP_500_meanwind_240.txt.gz
Wind_Speed
9 9 9 9 10 10 9 10 10 10 10 10 11 11 11 10 10 10 11 11 11 11 11 11 11 12 11 11 12 12 12 11 11 10 10 10 9 10 9 10 10 10 10 10
10 10 11 11 11 11 10 10 11 11 11 11 11 11 11 10 11 11 11 11 11 11 11 11 11 12 12 12 12 11 11 11 11 11 11 10 10 9 9 9 10 10 10 10
10 10 11 11 11 12 12 11 12 12 12 12 12 12 12 12 12 12 12 12 12 12 12 12 12 12 12 12 12 12 11 11 12 12 12 11 10 10 10 9 10 10 10 9
11 10 11 11 12 12 12 12 12 12 12 13 12 12 12 12 12 12 12 12 13 13 12 12 12 12 12 12 12 13 12 12 12 12 12 11 11 10 10 10 10 9 8 8
12 11 12 12 12 13 13 13 13 13 13 14 13 13 12 13 13 13 13 12 12 13 12 12 12 12 12 12 12 12 12 12 12 12 12 11 11 10 10 9 8 8 8 8
13 13 13 13 13 14 13 13 14 14 15 15 14 14 13 13 13 13 13 13 13 13 13 13 13 13 12 12 12 13 12 12 12 12 12 12 11 11 10 10 9 8 8 7
13 14 14 14 14 14 14 14 14 15 15 16 15 15 14 14 13 13 13 13 13 14 14 13 13 13 13 13 13 13 13 13 13 12 12 11 11 11 11 10 10 9 8 8
14 14 14 14 14 14 14 14 14 15 16 16 16 16 15 14 15 14 14 14 14 14 14 14 14 14 14 14 14 14 13 13 13 12 12 11 11 11 11 10 10 10 9 8
15 15 15 14 15 15 15 15 15 15 16 16 17 16 16 15 15 15 15 15 15 14 15 15 14 14 14 14 14 14 14 14 13 13 13 13 13 12 11 11 10 9 9 9
15 15 16 15 15 16 16 16 16 16 16 16 17 16 16 16 16 16 16 15 15 15 15 15 15 15 15 14 14 15 15 15 14 14 14 13 13 12 11 11 10 10 10 9
15 15 16 16 16 16 16 16 16 17 17 17 17 17 16 16 16 16 16 16 16 16 16 16 16 15 14 15 15 15 15 15 15 14 14 13 13 13 12 12 11 11 10 10
15 15 16 16 17 17 17 17 17 18 18 18 18 18 17 17 16 16 16 16 16 16 16 16 15 15 15 15 15 15 15 14 15 15 14 14 14 14 14 13 12 12 12 12
16 16 16 16 17 17 17 17 18 18 19 19 18 18 17 17 17 16 16 16 16 17 17 16 16 16 16 16 16 16 16 16 15 15 15 15 15 14 14 14 14 13 13 12
18 18 17 17 18 18 18 18 19 19 19 19 19 18 17 17 16 16 17 17 17 17 17 17 17 17 17 18 17 17 17 17 16 16 15 15 15 15 15 15 15 15 14 14
19 18 19 19 19 20 20 19 20 20 20 20 19 19 18 18 17 17 18 18 18 18 18 18 18 18 17 17 17 17 17 17 17 17 16 17 16 16 17 16 16 16 16 16
20 19 20 20 21 22 21 20 20 20 21 21 21 20 19 19 18 18 18 19 20 20 20 19 19 19 18 17 17 18 18 18 19 18 18 18 17 17 17 17 17 17 16 16
21 21 22 22 22 23 22 21 21 21 21 21 22 21 21 21 20 20 19 19 19 20 20 20 19 19 19 19 18 18 19 19 20 20 20 19 19 18 18 18 18 18 17 17
22 22 23 23 22 23 22 21 21 22 21 22 22 21 21 21 21 21 21 21 20 20 20 20 20 20 20 21 21 20 20 20 20 21 21 21 20 20 20 19 19 19 18 18
23 24 24 25 25 24 23 23 23 23 23 22 22 22 22 22 22 22 22 22 22 21 21 21 21 21 21 22 22 22 21 21 21 22 22 21 21 21 21 20 20 20 20 20
25 25 26 26 27 26 24 24 24 24 24 23 23 23 23 23 22 22 23 23 23 23 23 23 22 22 22 23 23 22 22 22 22 22 22 22 22 22 22 22 22 21 21 21
25 26 26 26 28 27 25 24 24 25 24 24 24 24 24 24 23 23 24 24 24 24 24 24 23 23 23 23 23 23 24 23 23 23 23 23 23 23 23 23 23 22 22 22
26 26 27 27 28 27 27 26 26 26 26 26 26 26 26 25 25 25 25 24 24 24 25 25 25 24 24 24 24 24 24 24 24 24 24 23 23 24 24 24 23 23 23 23
28 28 28 29 29 29 28 28 27 27 27 27 26 27 27 27 26 26 27 26 25 25 25 25 26 25 25 25 25 25 25 25 25 25 25 24 25 25 25 25 24 24 24 24
29 29 29 29 29 29 29 29 28 28 28 27 28 28 28 27 27 27 27 28 27 27 26 26 26 26 26 26 26 26 26 27 26 26 26 26 26 26 26 26 26 26 25 24
30 30 30 30 30 31 30 30 30 29 28 28 28 28 28 28 28 28 27 27 28 28 27 27 27 27 27 27 27 27 28 28 28 27 27 27 27 27 28 28 27 27 27 26
30 30 30 30 30 32 31 31 30 29 29 29 29 29 29 29 29 29 28 28 28 28 28 28 28 28 28 28 28 28 29 29 29 29 29 28 29 29 29 29 28 28 29 29

GEFSCGP_500_meanwind_246.txt.gz
Wind_Speed
8 8 8 8 9 9 10 10 10 10 10 11 11 10 11 11 11 12 12 12 12 11 11 12 12 11 11 11 12 12 12 12 12 12 11 11 11 11 11 11 11 11 11 11
9 9 9 10 10 10 10 11 11 11 12 12 11 11 12 12 12 13 13 13 13 13 12 12 12 12 11 12 12 12 12 12 12 12 11 11 11 11 11 11 10 11 11 12
10 10 10 11 11 11 11 11 11 12 12 12 13 12 12 12 13 13 13 13 13 13 13 13 13 13 12 12 13 13 13 12 12 12 12 11 11 11 11 11 11 11 11 11
12 11 11 12 12 12 12 12 12 12 13 12 13 14 13 13 14 13 13 14 13 14 14 13 13 13 13 13 13 13 13 13 13 13 12 12 12 11 11 11 11 10 10 10
13 12 12 12 12 12 12 12 12 12 12 12 13 15 14 14 15 15 14 14 14 14 14 14 13 14 14 13 13 13 13 13 13 13 12 12 12 11 11 11 11 10 10 10
13 13 13 13 13 12 12 11 11 11 11 13 13 15 16 14 15 16 15 15 15 15 15 15 14 15 14 14 14 14 13 13 13 12 12 13 12 11 11 11 11 10 9 9
14 13 14 14 13 12 12 11 11 11 12 13 13 15 16 15 16 16 16 16 15 15 16 15 15 15 15 14 14 14 13 14 14 13 13 13 12 12 12 11 11 10 9 9
14 15 14 14 14 13 13 12 12 12 12 13 14 16 16 17 17 17 17 17 16 16 16 16 16 15 15 15 14 14 14 14 14 14 14 13 12 12 12 11 11 11 10 9
15 16 15 15 15 15 14 14 14 15 15 15 16 17 18 18 18 18 18 18 18 17 17 17 17 16 16 16 15 15 14 14 14 14 14 14 13 12 12 12 12 12 11 10
16 17 16 15 15 15 15 15 15 16 16 16 16 17 19 18 19 19 19 19 18 17 17 17 17 17 17 16 16 16 15 15 15 15 15 14 14 13 12 12 12 12 12 11
16 16 16 16 15 16 16 16 16 16 17 17 17 18 19 19 19 19 19 19 19 18 18 17 17 16 16 16 16 16 16 16 16 16 15 15 14 14 13 13 12 12 12 12
16 16 16 16 16 16 16 17 17 18 18 19 19 20 19 20 19 19 18 18 18 18 18 17 17 17 17 16 16 16 16 17 17 16 16 16 15 15 15 14 14 13 13 13
17 17 16 17 18 17 17 18 18 18 19 20 20 20 20 21 20 20 20 20 19 18 18 17 17 17 18 17 17 17 17 17 17 17 17 17 16 16 16 15 15 14 14 14
19 19 18 19 19 20 19 19 19 20 19 20 20 20 21 21 21 21 20 20 20 19 19 19 18 18 18 18 18 18 18 17 17 17 18 18 17 17 17 16 16 16 16 15
20 20 20 20 21 22 22 21 21 21 21 21 20 21 22 22 21 22 22 21 21 20 19 19 19 19 19 19 19 18 18 18 18 18 18 18 18 18 18 17 17 17 16 16
21 21 22 22 22 23 24 22 22 23 22 23 23 22 23 23 22 22 22 22 21 20 20 20 19 19 19 19 19 19 18 18 19 19 19 19 18 18 18 18 18 18 18 17
21 22 23 23 23 24 25 22 22 23 22 23 24 23 23 24 23 23 23 22 22 21 21 20 20 20 19 19 19 19 19 19 19 19 19 20 19 19 18 18 19 19 19 19
22 23 24 24 24 26 24 23 23 24 24 24 24 24 25 25 24 25 24 23 23 23 23 22 21 21 21 21 21 21 20 20 20 20 20 20 21 20 20 20 20 20 20 19
23 24 25 25 25 26 26 25 25 25 24 24 25 25 25 26 25 26 25 24 25 24 23 24 23 23 22 22 22 23 23 22 22 22 21 22 22 22 22 21 21 21 20 20
24 25 26 26 27 28 27 27 26 27 27 25 26 26 26 26 27 27 26 26 25 25 25 25 25 25 25 24 25 24 24 24 23 23 23 23 24 24 23 23 22 22 21 21
25 26 27 27 28 29 28 28 27 28 28 27 28 28 27 28 28 28 27 27 27 27 27 27 27 27 27 26 26 26 26 25 25 24 25 25 25 24 24 24 24 24 23 22
27 28 28 28 29 30 29 30 30 29 29 30 29 29 29 29 29 29 28 28 28 28 29 28 29 29 28 28 28 28 27 27 27 27 27 26 27 26 26 26 26 26 25 25
28 29 29 30 30 30 30 31 31 32 31 30 30 29 29 29 30 30 30 30 30 30 31 30 30 30 29 29 29 29 28 28 29 29 29 29 29 28 28 27 27 26 27 26
29 30 31 32 32 33 33 33 32 31 31 31 31 30 30 31 31 32 32 32 32 32 32 32 31 30 29 29 29 29 29 29 30 30 30 30 29 29 29 29 29 28 28 28
31 31 33 34 34 34 34 34 34 33 33 33 33 33 33 33 33 34 33 33 33 33 33 33 33 32 31 31 31 31 31 30 30 30 30 30 30 30 30 30 29 29 29 29
31 33 35 35 35 35 35 35 35 35 34 33 33 33 33 33 33 33 33 33 34 34 34 34 34 34 33 33 33 32 32 32 32 31 31 31 31 31 31 31 31 31 31 31

GEFSCGP_500_meanwind_252.txt.gz
Wind_Speed
8 8 8 8 9 9 8 8 7 7 6 6 6 6 6 6 7 7 7 7 7 8 8 8 9 9 8 9 9 8 9 10 10 10 9 9 9 9 9 9 9 9 9 10
8 8 8 9 9 9 9 9 8 8 8 8 8 7 6 6 7 7 7 7 8 8 8 9 9 9 9 9 10 10 10 10 11 10 10 10 10 9 9 9 9 9 10 10
9 9 9 9 9 9 9 9 9 9 10 10 10 9 7 7 8 8 8 8 8 9 9 9 9 10 10 10 10 11 11 11 11 11 11 11 11 11 10 10 10 10 10 10
10 10 9 10 10 10 10 10 11 11 11 11 11 10 9 9 9 9 9 9 9 9 10 10 10 10 11 11 11 11 12 12 12 12 11 11 11 11 11 10 10 10 10 10
11 10 10 10 10 11 11 11 11 12 12 11 11 12 10 10 10 10 10 10 10 9 10 10 10 11 11 11 11 11 12 12 12 12 12 11 11 11 11 10 10 10 10 10
11 11 11 12 12 12 12 12 12 12 12 12 11 12 11 10 10 10 11 11 10 10 10 10 11 12 12 12 12 12 12 12 12 12 12 12 12 12 11 11 11 11 10 10
11 11 11 12 12 12 12 12 13 13 13 12 12 12 12 11 10 11 11 11 11 11 10 11 12 12 12 13 12 12 13 13 13 13 12 12 12 12 12 12 12 11 11 11
12 11 12 12 12 12 12 12 13 14 13 13 12 13 12 11 11 11 11 11 11 12 12 12 12 13 13 13 13 13 13 13 14 14 14 13 13 13 13 12 12 12 12 11
12 12 12 12 12 13 13 12 13 14 14 14 14 14 14 13 12 12 12 12 11 12 13 13 13 13 14 14 14 14 14 14 14 15 15 14 14 13 13 12 12 12 12 11
12 12 12 12 12 13 13 12 12 13 14 14 15 15 15 14 14 14 14 14 13 14 14 14 14 14 14 14 14 15 15 15 14 14 14 14 14 14 13 13 13 13 13 12
13 13 13 13 12 12 12 13 14 15 16 17 16 15 15 15 14 15 15 15 15 14 15 15 15 15 15 15 14 14 15 15 15 15 15 15 14 14 14 13 13 13 12 11
14 14 14 13 13 14 14 15 15 16 17 17 17 16 16 16 16 15 15 16 16 16 15 16 16 16 16 15 15 15 15 15 16 16 15 15 15 14 14 14 14 13 13 13
15 15 15 15 15 15 15 15 16 17 18 18 18 17 17 17 16 16 16 16 16 17 15 15 15 16 16 16 16 16 16 16 16 16 16 16 15 15 15 15 15 15 15 14
16 16 16 17 17 17 16 16 17 18 19 19 18 18 18 18 17 17 17 17 17 17 16 15 15 16 16 16 17 17 18 17 17 16 16 16 16 17 17 16 16 16 16 15
16 16 17 18 18 18 18 18 18 20 20 20 19 19 18 19 19 19 19 18 18 18 17 17 17 17 17 17 18 18 19 18 17 17 17 17 17 18 18 18 17 17 17 17
17 17 18 18 19 20 19 19 20 20 20 20 20 19 19 19 20 20 20 20 20 19 18 18 18 18 19 19 19 20 19 19 18 18 19 19 19 19 19 19 19 18 18 18
19 19 20 19 20 21 20 20 20 21 21 21 21 20 21 21 22 21 21 21 21 21 20 20 20 19 20 21 20 20 20 20 20 20 20 20 21 21 21 21 21 20 20 20
21 21 22 22 22 23 21 21 21 22 21 22 22 22 23 23 23 22 22 22 23 23 22 21 20 21 21 21 21 21 22 21 21 22 22 22 22 22 22 22 22 22 21 21
22 23 24 24 24 23 21 22 22 23 23 23 24 24 24 25 24 23 23 23 24 24 24 24 23 23 23 22 23 23 23 23 23 23 23 24 24 23 24 23 23 23 23 22
23 24 25 25 25 24 22 22 23 25 25 24 25 25 25 25 26 25 26 26 26 26 26 26 25 25 25 25 25 25 25 25 25 25 26 26 26 26 26 25 25 25 25 24
24 25 26 26 27 25 24 24 24 26 26 25 26 26 27 27 27 27 28 28 28 27 27 27 28 27 27 27 27 27 27 27 27 27 28 28 28 28 27 27 27 27 27 27
25 25 26 27 27 26 26 26 26 27 28 27 27 27 28 28 28 28 29 29 29 29 29 29 30 29 29 29 29 28 28 29 29 29 29 29 29 29 29 29 29 28 28 29
25 26 26 27 28 28 28 28 28 28 28 28 28 28 29 30 30 30 30 31 31 30 30 31 31 30 30 31 30 29 30 30 31 30 30 30 29 30 30 30 30 29 29 29
26 27 27 28 28 29 29 29 30 30 30 30 30 30 30 31 32 32 32 32 33 32 32 32 32 31 31 32 31 31 31 32 31 31 31 31 31 31 31 31 31 31 30 30
28 29 29 29 29 30 30 31 31 31 31 31 31 32 32 33 33 34 34 34 34 34 34 34 34 33 33 33 33 32 32 33 33 33 33 33 33 33 33 33 32 32 32 31
29 31 31 30 31 32 32 32 33 33 33 33 33 33 33 33 34 34 34 35 35 35 35 36 35 34 34 34 34 33 34 34 35 34 34 34 34 34 34 34 34 34 34 33

GEFSCGP_500_meanwind_258.txt.gz
Wind_Speed
8 8 8 8 8 9 9 9 8 8 9 9 9 9 9 9 9 9 9 9 9 10 9 9 8 9 9 9 9 9 9 9 8 8 9 9 9 9 9 9 9 9 9 9
9 9 9 9 9 9 9 9 9 9 10 10 10 10 10 9 9 9 10 10 10 10 10 10 9 10 9 9 9 9 9 9 10 10 10 10 10 9 9 9 9 9 10 9
10 10 10 10 10 11 11 11 11 11 11 11 11 11 11 11 10 10 10 10 11 11 11 11 10 10 11 11 10 10 10 10 11 11 11 11 11 11 10 10 10 10 10 9
11 11 12 12 11 12 12 12 12 12 13 13 13 12 11 12 11 11 11 11 11 11 12 12 11 11 11 11 12 11 11 11 11 11 12 11 11 11 11 10 10 10 10 10
12 12 12 12 12 12 12 12 12 13 13 13 13 13 11 12 12 12 12 12 12 12 12 12 12 11 11 11 11 11 12 12 13 12 12 12 12 11 11 10 10 10 10 10
13 13 13 12 12 13 13 13 14 14 14 14 13 13 11 12 12 12 12 12 13 13 12 13 12 12 12 11 12 12 12 12 13 13 13 12 12 12 12 11 11 11 11 10
14 14 14 13 13 13 13 13 14 14 14 14 13 13 12 12 13 13 13 13 13 13 13 13 13 13 12 12 13 13 13 13 13 13 13 13 13 13 12 12 12 12 11 11
15 14 14 14 14 14 13 14 14 14 14 13 13 13 13 13 13 13 13 13 14 14 13 14 14 14 13 13 14 14 13 13 13 13 13 13 14 14 13 13 13 13 13 12
15 15 14 14 15 14 14 14 14 15 14 14 13 13 13 13 13 13 14 14 14 14 14 14 14 14 15 14 14 14 14 14 14 13 13 13 14 14 14 14 14 14 13 13
15 16 15 15 16 15 15 14 14 15 15 14 14 13 13 13 13 13 14 14 15 15 15 15 15 15 15 15 15 15 15 15 15 15 14 14 14 15 15 15 15 14 13 13
15 15 15 16 16 16 15 15 16 16 16 16 15 15 15 14 14 14 14 15 15 16 16 16 16 16 16 16 16 16 16 16 16 15 15 15 15 16 16 16 15 14 14 14
16 16 16 16 16 16 17 17 17 18 18 18 17 16 16 16 16 16 15 15 15 16 16 16 16 17 17 17 17 17 17 17 17 16 16 15 16 16 16 16 15 15 15 15
16 17 17 16 16 17 18 18 19 19 19 19 19 18 18 18 18 17 17 17 16 16 16 16 16 16 17 17 17 17 17 18 18 17 17 16 16 17 16 16 16 16 16 15
17 17 17 18 17 17 18 18 19 20 20 20 19 18 18 19 19 19 19 18 17 17 17 17 17 16 16 17 17 17 17 17 17 17 17 17 17 17 17 17 17 17 17 17
19 19 18 19 19 19 19 19 20 20 21 21 19 20 19 20 20 20 20 20 20 19 19 19 18 18 18 18 18 18 18 18 17 17 18 18 18 18 18 18 19 19 19 18
20 20 20 20 20 20 20 20 21 22 22 22 22 21 20 21 21 21 22 22 21 21 21 21 21 20 20 19 19 20 20 20 19 19 19 19 19 19 19 19 19 20 21 21
21 22 22 22 22 22 22 21 23 23 23 23 22 21 21 22 23 23 23 23 23 22 22 23 22 22 22 21 21 21 21 21 21 21 21 21 21 21 21 21 21 21 21 22
22 23 24 24 24 24 22 22 23 23 23 23 23 23 23 23 23 24 24 24 24 24 25 24 25 25 24 24 23 24 24 24 23 23 23 23 24 24 24 24 24 24 23 23
23 24 25 25 25 24 23 23 23 23 22 23 23 23 24 24 24 25 26 26 25 26 26 26 26 26 27 26 26 25 25 26 26 25 25 25 26 26 26 26 26 26 26 26
25 26 27 26 27 25 23 24 24 25 24 24 25 25 26 26 26 26 27 27 27 27 27 27 27 27 28 28 28 27 27 27 27 27 27 27 28 28 28 28 28 28 28 28
25 26 27 28 28 27 26 26 26 26 25 26 27 27 28 29 29 28 29 29 29 29 29 29 29 29 30 30 29 29 29 29 29 29 29 29 29 29 29 29 29 30 30 29
25 26 27 27 29 28 28 27 27 28 28 28 28 29 29 29 30 30 30 31 31 30 31 31 31 31 32 32 32 31 31 31 31 31 31 31 31 31 31 31 31 31 31 30
26 27 28 28 28 28 29 30 30 30 30 29 30 30 30 30 30 31 32 32 32 32 32 33 33 33 33 34 34 34 33 33 33 33 33 32 32 32 32 32 32 32 32 32
27 28 29 30 29 29 29 30 31 32 32 32 32 32 32 32 32 32 32 32 33 33 33 33 34 34 34 35 35 35 35 35 35 35 34 34 34 33 33 33 33 33 33 33
28 29 30 30 31 32 31 32 33 33 33 33 34 35 35 35 34 34 33 33 33 33 33 34 35 35 35 35 35 36 36 36 36 35 35 35 35 35 35 34 34 34 34 35
29 31 32 32 32 34 33 34 34 34 34 35 36 36 36 36 36 35 35 34 34 34 34 34 35 36 36 36 37 37 37 37 37 36 37 37 37 37 37 37 36 36 36 36

GEFSCGP_500_meanwind_264.txt.gz
Wind_Speed
5 5 5 5 6 6 7 7 7 8 8 8 7 8 8 8 8 8 9 10 10 10 10 10 11 11 11 11 11 11 11 11 11 10 10 10 11 10 11 11 12 11 11 11
6 6 6 6 6 7 7 7 8 9 9 9 8 8 9 10 10 10 10 10 11 11 11 11 11 11 11 11 11 11 11 11 11 10 11 11 11 11 12 12 12 11 11 11
7 7 7 7 7 8 8 9 9 9 9 9 9 9 10 10 10 10 11 11 11 11 11 11 11 12 12 12 12 12 12 11 11 12 12 12 13 13 12 12 12 12 11 11
8 8 8 8 9 9 9 10 10 10 9 10 9 10 10 11 11 11 11 11 11 12 12 11 11 12 12 12 12 12 12 12 12 12 12 12 13 13 12 12 12 12 12 11
9 9 9 9 9 10 10 10 10 10 10 11 11 11 12 12 12 12 12 12 12 12 12 12 12 12 12 13 13 13 13 12 12 12 12 13 13 13 13 12 12 12 12 12
10 10 10 10 10 11 11 11 11 11 11 12 12 12 12 12 12 13 13 13 13 13 13 13 12 12 13 13 14 14 13 13 13 12 12 13 13 12 12 12 12 13 13 13
11 11 11 11 11 11 10 10 11 12 12 13 13 13 13 13 12 13 13 14 14 14 13 13 13 13 13 14 15 14 13 13 13 13 13 13 13 13 13 13 13 13 14 14
12 12 12 12 12 11 11 11 11 12 13 13 13 13 13 13 13 13 13 14 14 14 14 14 14 13 14 14 14 14 14 14 13 13 13 13 13 13 13 13 13 13 14 14
13 14 13 13 13 12 12 11 12 13 13 14 14 14 14 14 14 13 13 14 14 14 15 15 15 15 14 14 14 14 14 14 14 14 14 14 13 13 13 13 13 13 13 13
14 15 15 14 14 14 13 13 13 13 14 15 15 15 15 14 14 14 14 14 15 15 15 15 16 16 16 15 15 15 15 15 15 15 15 15 14 14 14 14 14 14 14 14
15 16 15 15 15 15 15 15 15 15 15 16 16 16 16 16 16 16 16 16 16 16 16 16 16 16 16 16 16 16 16 16 16 16 16 16 15 15 14 15 15 15 15 15
15 16 16 16 16 16 16 16 16 17 17 17 18 18 17 17 17 17 17 17 17 17 18 17 17 17 17 17 17 17 17 17 16 16 16 16 15 15 15 15 15 15 15 15
16 16 17 17 17 17 17 17 18 18 18 18 18 19 18 18 18 18 18 18 18 18 18 18 18 18 19 19 18 18 18 18 18 17 17 17 17 16 16 16 16 16 16 16
17 17 18 18 19 18 18 18 18 19 19 19 18 19 19 19 19 19 19 19 19 19 19 19 19 19 19 19 19 19 19 19 19 19 19 19 18 17 17 17 17 17 17 17
18 18 18 19 19 19 19 19 19 19 19 19 19 19 20 20 20 20 20 20 20 19 19 20 20 20 21 21 21 21 21 21 21 21 21 21 20 19 19 19 19 19 19 19
18 18 19 19 19 19 19 19 19 20 20 21 20 20 20 21 21 21 21 21 21 20 20 21 21 22 22 22 22 22 22 23 23 23 23 22 22 21 21 20 20 20 20 20
19 19 20 20 20 20 20 20 21 21 22 22 22 21 22 22 22 22 22 22 22 22 22 22 22 23 23 23 24 24 24 24 24 24 24 24 24 23 23 22 22 22 22 22
19 20 21 21 21 21 21 20 21 22 23 23 23 23 22 22 22 23 23 23 23 23 23 23 23 24 24 25 25 25 25 26 25 25 25 25 25 25 25 25 25 24 24 24
20 21 22 22 23 23 22 22 22 23 23 24 24 24 24 23 23 23 24 24 25 25 25 25 25 25 25 26 27 27 27 27 26 26 27 27 27 27 27 27 27 26 26 26
21 22 22 23 24 24 23 22 23 24 24 23 25 25 25 25 26 25 25 25 26 26 26 27 26 27 27 27 28 28 28 29 29 28 28 29 29 29 28 29 29 29 28 28
21 23 23 24 24 24 24 23 23 24 25 24 25 26 27 27 27 26 26 26 27 28 28 28 28 28 28 28 28 29 29 30 30 29 29 29 30 30 30 30 30 30 31 31
22 23 23 24 25 25 25 24 24 25 25 26 26 26 27 27 27 27 28 28 28 29 29 29 29 29 29 30 29 30 30 31 31 31 31 31 31 31 31 32 32 32 32 33
23 24 25 25 26 26 25 24 25 25 26 27 27 28 28 28 28 28 29 29 29 29 30 30 30 30 31 31 31 31 31 32 32 32 32 33 34 34 34 34 34 34 34 34
24 25 27 27 27 27 27 26 27 28 28 28 28 28 29 29 30 30 30 30 30 30 31 31 31 32 32 32 33 33 33 33 34 34 34 35 35 35 35 36 36 36 36 35
26 27 28 29 29 29 29 29 29 29 29 29 29 29 30 30 31 32 31 31 31 32 32 32 33 33 33 33 33 34 34 34 35 35 36 36 36 35 36 36 37 37 37 37
28 29 30 30 30 31 30 31 31 31 30 31 31 31 31 31 32 32 32 32 32 33 33 34 34 34 35 35 35 35 35 36 36 37 37 38 37 37 36 36 36 37 38 38

GEFSCGP_500_meanwind_270.txt.gz
Wind_Speed
7 7 8 7 7 7 7 8 8 9 10 9 9 10 11 11 11 12 12 12 12 12 12 12 12 13 13 13 13 12 12 12 12 13 13 14 14 15 15 15 15 15 14 14
7 7 7 7 7 8 8 9 9 9 10 10 9 10 12 12 12 12 12 13 13 13 13 13 13 12 13 13 12 13 13 13 13 13 13 14 14 15 15 15 15 14 14 14
8 8 8 8 9 9 9 10 10 10 10 10 10 11 12 12 12 13 13 13 13 13 13 13 13 13 13 13 14 14 13 13 13 13 14 15 15 15 15 15 14 14 13 14
9 9 9 9 9 10 10 10 10 10 10 10 10 13 14 14 13 13 13 13 13 13 14 14 14 14 14 14 14 14 14 14 14 14 14 15 15 15 15 14 14 13 13 13
10 11 10 10 10 11 10 10 10 10 10 10 11 13 15 17 15 14 14 14 14 14 15 15 14 14 14 15 14 14 15 15 15 15 15 15 16 15 14 14 13 13 13 13
11 12 12 11 11 11 11 10 9 9 11 11 11 13 16 17 17 16 16 15 15 16 16 16 16 16 15 15 15 15 15 16 16 16 16 16 16 15 14 14 14 14 14 14
13 13 13 13 12 11 11 11 11 11 11 12 13 14 16 17 18 18 18 17 16 17 17 17 17 17 16 16 16 16 16 16 16 16 16 16 15 15 15 15 15 15 14 14
13 13 13 13 13 13 12 13 12 12 11 13 15 16 17 17 17 18 18 18 18 18 18 18 18 18 17 17 17 17 16 16 16 16 16 16 16 16 16 15 15 15 15 15
13 15 15 15 15 14 14 14 14 14 14 15 16 20 19 17 18 18 19 19 19 19 18 18 18 18 18 18 18 18 17 17 17 17 17 16 16 16 16 16 16 16 15 15
15 16 16 16 17 16 16 15 15 16 16 17 18 20 22 19 20 20 20 20 20 20 20 19 19 19 19 19 19 19 18 18 18 18 18 17 17 16 16 16 15 15 15 15
16 17 18 17 17 17 17 16 17 17 17 18 17 19 20 21 22 22 22 22 21 21 20 20 20 20 20 20 20 19 20 20 19 19 19 18 18 18 17 17 16 16 16 16
17 17 18 18 17 17 17 17 17 18 19 19 20 22 22 22 23 23 23 23 23 22 21 21 21 21 21 21 21 21 21 21 20 20 20 20 19 19 18 18 17 17 17 17
17 17 17 17 18 18 18 17 18 19 20 20 21 23 23 23 24 24 24 23 23 23 23 22 22 22 22 22 21 21 22 22 22 21 21 21 20 20 20 19 18 18 18 18
18 17 17 17 19 20 19 19 19 20 20 20 20 22 24 24 24 25 25 25 24 24 24 23 23 23 23 22 22 22 23 23 23 23 22 22 22 22 21 21 21 20 20 19
19 19 18 19 21 22 22 21 21 21 21 22 21 23 24 25 25 25 25 24 25 25 24 23 23 23 23 23 23 23 23 24 24 24 24 24 24 23 23 23 23 22 21 21
21 20 20 20 20 23 23 22 22 22 22 22 22 23 24 25 26 26 26 25 25 25 25 24 24 24 24 24 24 25 25 25 25 25 25 25 25 25 25 25 25 24 23 23
22 22 22 21 21 23 24 22 23 23 23 23 23 24 25 26 26 27 27 27 26 26 26 26 26 26 26 26 26 25 25 26 26 25 26 26 26 26 26 26 26 25 25 24
22 22 22 22 22 23 22 21 22 23 23 25 25 26 26 26 27 27 27 27 27 26 26 26 27 27 27 27 27 26 26 26 27 27 27 27 27 27 27 27 27 27 27 26
22 22 23 23 23 23 23 22 22 23 24 25 26 26 27 27 28 27 27 26 26 26 26 26 27 27 27 27 27 27 28 27 28 28 28 28 28 28 28 28 28 28 28 29
22 22 23 23 24 24 23 22 22 24 25 24 25 26 26 27 29 28 29 28 28 28 28 28 28 28 28 28 28 28 28 28 29 29 29 29 29 29 29 29 29 30 30 30
23 23 23 24 25 25 24 23 23 24 25 25 25 26 26 27 28 29 29 29 29 29 29 29 29 29 29 29 29 30 30 30 30 30 30 30 30 30 31 31 31 31 32 32
24 24 24 25 25 25 25 25 25 26 26 26 26 27 28 28 28 29 30 30 30 30 30 30 30 30 30 30 30 30 31 31 31 31 31 32 32 32 32 33 33 33 33 33
25 25 26 26 27 27 27 27 27 28 28 28 28 29 30 30 30 30 31 32 32 31 31 31 31 31 31 31 31 31 31 31 32 32 33 33 33 34 34 34 34 34 34 34
27 27 27 27 28 28 29 29 29 30 30 30 30 31 31 31 32 32 32 33 32 32 32 32 33 33 33 32 32 32 32 32 32 33 33 34 34 34 35 35 35 35 35 36
29 29 29 29 29 30 30 30 30 31 31 32 32 32 33 33 33 33 33 33 33 33 33 33 34 34 34 34 34 34 34 34 33 33 34 34 34 35 35 35 35 36 36 37
30 31 31 31 31 32 33 33 33 33 33 33 33 33 34 34 33 33 33 34 34 34 34 35 36 36 36 36 36 36 36 36 36 35 34 34 34 35 35 36 36 36 37 37

GEFSCGP_500_meanwind_276.txt.gz
Wind_Speed
8 8 7 7 7 7 7 7 7 6 6 6 6 6 6 5 5 6 7 7 8 8 9 9 9 9 10 10 10 10 11 11 12 12 12 12 12 12 12 12 12 12 12 12
9 9 8 8 8 8 8 8 7 7 6 6 6 7 7 7 6 7 8 8 8 9 9 9 10 10 10 10 10 10 11 12 12 13 12 12 12 12 13 12 12 12 12 12
9 9 9 8 8 8 8 8 8 8 7 7 7 7 8 8 8 8 9 9 9 10 10 10 10 11 11 11 11 11 11 12 13 13 13 12 12 13 13 13 12 12 12 12
9 9 9 8 8 8 9 8 8 9 9 9 9 8 8 8 8 9 10 10 10 11 11 11 11 11 11 12 12 13 13 13 13 13 13 13 13 13 13 12 12 12 11 11
9 9 9 9 8 9 9 9 9 10 10 10 10 9 7 9 9 10 10 10 11 11 12 13 12 13 13 13 13 14 14 14 13 13 13 13 13 13 13 12 12 12 11 11
10 9 9 9 9 9 9 10 10 10 11 11 12 11 9 10 10 11 11 11 11 12 13 13 13 14 14 14 14 14 14 14 14 14 14 13 14 14 13 13 13 13 12 12
11 10 10 10 10 10 11 11 12 12 13 13 14 14 12 12 12 12 12 12 12 12 13 14 14 14 15 15 16 16 16 16 16 16 15 14 14 14 14 14 14 13 13 13
12 12 11 11 11 11 12 12 14 15 15 14 15 15 14 14 14 13 13 13 13 13 14 15 15 15 15 16 16 17 17 17 16 17 17 16 16 15 15 15 15 14 14 14
12 12 12 12 12 13 13 13 14 15 16 16 17 16 15 15 14 15 15 15 15 14 15 15 16 17 17 17 17 18 18 18 18 17 18 17 17 17 16 16 16 15 14 14
12 13 12 12 13 13 13 14 15 16 17 18 17 17 16 15 15 16 16 16 16 16 16 17 18 18 19 19 19 19 18 19 19 19 19 19 18 18 17 17 16 15 15 15
13 14 13 13 13 14 14 15 16 16 17 18 19 18 17 17 17 17 17 17 18 17 17 18 19 19 19 20 20 19 19 20 20 20 19 19 20 19 18 18 17 16 16 16
14 15 15 15 14 16 16 16 17 17 18 19 20 18 18 18 18 18 18 18 18 19 19 19 19 19 19 20 20 20 20 20 20 20 20 20 20 20 19 19 18 17 17 17
16 17 17 17 17 17 17 17 18 19 19 20 20 19 18 19 19 19 19 19 19 19 19 19 19 20 20 20 20 21 21 21 21 21 21 21 21 21 20 20 19 19 19 19
17 18 18 18 18 18 18 18 18 19 20 20 20 20 20 20 20 20 20 20 20 20 20 21 21 21 20 21 21 21 21 22 22 22 22 22 22 21 21 21 21 20 21 20
18 19 19 19 20 20 19 19 20 21 21 21 21 22 21 21 22 22 22 21 20 20 20 21 21 21 21 21 21 22 22 22 23 23 22 22 23 23 22 22 23 22 22 22
19 20 20 20 20 21 20 20 21 22 22 22 22 21 21 22 22 23 23 22 22 22 22 21 21 21 21 21 22 22 23 24 24 24 24 24 24 24 23 23 23 23 23 23
21 20 21 21 21 22 21 20 22 22 22 22 22 21 21 22 22 22 23 23 23 23 24 23 23 22 22 22 23 23 24 25 25 25 25 25 25 25 25 24 24 24 25 24
20 21 21 22 22 22 21 21 22 23 23 23 22 22 22 22 23 24 24 24 24 25 24 25 25 24 24 24 25 25 25 26 26 26 26 26 26 27 27 27 26 27 27 26
21 21 21 22 22 22 21 21 22 23 23 22 22 22 23 23 23 24 24 25 25 25 26 26 26 26 26 26 26 26 26 26 27 27 28 27 27 27 28 28 28 28 28 27
22 22 23 23 23 22 21 21 22 23 22 22 22 23 23 24 24 24 24 25 25 26 27 27 28 28 27 27 28 27 26 27 27 27 27 27 27 28 28 28 28 29 28 28
24 24 25 25 25 24 23 23 23 23 22 22 22 23 23 24 25 25 25 26 26 27 27 28 29 29 30 30 29 29 28 28 27 27 26 27 28 29 29 29 29 30 30 30
25 26 25 26 26 25 24 24 24 24 24 23 23 24 25 25 25 26 27 27 27 28 28 29 29 30 30 31 30 30 29 29 28 28 28 28 29 29 29 30 30 30 30 31
26 27 27 27 27 26 25 25 25 25 25 24 25 25 26 26 27 28 29 29 29 30 30 30 30 30 30 31 31 31 30 30 30 30 30 30 30 30 30 30 31 32 32 32
26 26 27 28 28 28 27 26 26 26 27 27 27 27 28 28 29 30 30 31 31 31 31 31 31 31 30 30 30 31 31 31 31 31 32 31 31 31 31 31 31 32 32 32
26 27 28 29 29 29 29 29 28 28 29 29 29 30 30 31 31 32 32 33 33 33 33 33 32 31 31 30 30 31 31 32 32 33 33 32 32 32 32 32 32 32 32 32
27 27 29 29 29 30 30 30 30 31 31 31 31 32 33 33 34 34 35 35 35 34 34 33 33 32 32 32 32 32 32 33 33 33 33 33 33 33 33 33 33 32 33 33